Wetbulb
56.82 57.35 57.62 57.65 57.76 58.04 57.97 58.00 57.95 58.05 58.60 58.90 58.87 58.98 59.30 59.48 58.79 52.80 46.59 51.47 52.95 62.69 62.64 53.12 52.81 51.91 50.50 46.58 43.34 39.65 34.26 31.11 34.88 36.64 39.62 42.02 41.74 45.21 46.95 46.15 46.86 47.92 47.32 49.99 55.20
56.11 56.48 56.76 57.04 57.58 57.85 57.79 57.91 57.94 58.13 58.32 58.60 58.53 58.91 59.03 59.53 53.06 46.28 58.04 62.46 63.57 64.12 51.76 51.28 49.62 50.50 44.65 43.00 42.99 38.49 33.12 35.27 38.45 39.03 41.47 40.99 41.08 43.32 44.79 44.67 45.18 47.11 50.07 52.18 52.26
55.58 55.79 55.94 56.33 56.91 57.11 57.44 57.66 57.87 57.90 58.05 58.18 58.37 58.77 58.96 58.13 46.34 47.12 63.09 63.95 64.59 61.84 52.73 52.54 50.87 46.75 41.84 40.79 41.30 36.85 37.04 38.55 40.73 42.09 42.25 41.50 42.03 44.13 42.80 41.88 45.39 45.21 48.10 49.70 49.95
54.79 54.94 55.34 55.59 56.21 56.57 56.70 57.28 57.69 57.75 57.88 57.83 58.39 58.95 59.32 53.56 38.10 50.60 65.54 64.89 65.07 57.01 52.66 49.00 47.06 42.21 39.03 40.42 41.32 39.60 40.88 42.27 43.47 44.09 41.73 42.15 43.65 42.85 43.38 45.55 47.35 47.03 48.79 49.25 48.81
54.23 54.40 54.53 54.95 55.43 55.89 56.21 56.63 57.00 57.09 57.22 57.50 58.49 59.13 55.90 47.53 48.40 56.82 66.71 65.18 57.73 54.07 50.63 47.17 45.45 40.82 39.33 39.28 41.74 39.31 41.49 43.83 45.55 44.06 42.81 44.34 43.01 43.44 44.10 46.72 47.49 47.73 48.81 48.53 48.15
54.50 54.01 53.85 54.27 54.90 55.31 55.94 56.26 56.20 56.44 56.76 57.34 58.76 59.36 50.47 42.82 52.86 56.09 53.97 54.22 54.51 51.11 49.99 46.74 46.62 45.14 41.61 39.63 39.73 42.19 41.78 43.84 44.08 42.73 42.88 42.94 42.65 42.41 46.63 47.31 47.49 47.59 47.69 48.48 48.66
53.88 53.92 53.86 53.96 54.41 54.94 55.54 55.56 55.47 56.08 56.87 57.80 59.22 57.30 48.94 48.40 55.97 55.31 53.28 51.70 53.29 53.62 50.05 49.27 49.41 46.43 44.35 41.82 43.32 42.74 40.94 41.69 42.38 42.96 42.04 43.34 41.51 41.95 45.97 47.09 47.19 47.66 47.78 47.74 48.91
53.53 53.38 53.46 53.79 54.02 54.45 54.86 55.17 55.47 56.19 57.31 58.25 59.09 53.39 45.79 52.82 54.72 54.66 51.81 52.48 54.40 53.32 52.50 51.59 50.24 46.51 43.50 43.89 43.54 39.16 37.67 34.77 41.02 43.04 42.74 42.92 36.12 44.40 46.63 45.76 46.32 47.23 47.94 48.25 48.50
53.33 52.80 53.01 53.57 53.92 54.39 54.52 54.28 55.41 57.05 58.04 59.31 53.16 48.93 46.62 56.65 53.12 55.00 54.07 52.03 51.41 51.74 51.42 53.98 49.02 44.13 44.64 39.07 35.66 36.02 32.90 33.59 38.05 40.82 41.35 41.00 37.45 44.12 46.75 45.50 44.87 45.52 46.13 47.09 47.78
52.92 52.49 52.62 52.91 53.65 53.95 53.63 54.11 55.67 56.50 57.69 57.97 55.39 47.57 50.06 50.06 53.57 52.38 52.19 52.32 50.51 49.24 48.34 47.41 43.35 40.23 38.15 36.97 30.25 32.57 31.44 33.43 34.39 39.25 39.27 38.42 38.71 42.01 44.32 43.88 43.92 44.40 45.21 45.81 46.41
52.87 52.43 52.20 52.54 53.19 52.98 51.00 48.59 48.42 46.40 47.63 47.58 47.52 49.21 50.70 53.88 55.63 51.96 52.14 50.43 49.39 46.41 39.72 42.06 38.61 35.24 38.86 39.69 39.23 37.47 34.75 34.23 37.16 40.69 37.67 38.35 37.85 41.19 44.24 42.66 42.70 43.38 44.09 44.95 45.90
52.35 52.28 52.33 52.24 52.55 53.18 48.18 47.75 48.63 49.16 44.69 50.67 50.71 50.19 52.52 53.84 49.72 52.40 53.11 47.28 44.59 39.65 40.54 39.39 35.95 41.86 42.34 40.87 39.77 37.11 34.37 35.06 37.85 40.57 39.18 38.45 38.29 40.76 42.38 43.04 43.45 44.47 44.70 45.40 46.53
51.44 51.53 51.93 51.89 51.66 49.86 48.16 49.68 51.23 49.83 44.24 47.41 49.65 48.86 49.81 52.21 48.58 49.71 50.50 46.85 43.19 39.49 39.00 37.37 41.03 44.21 42.60 39.97 39.08 36.69 35.63 35.74 36.61 38.34 38.87 37.50 35.42 37.50 42.38 44.15 46.12 46.46 46.02 44.94 44.26
51.08 51.05 51.25 50.67 48.49 46.08 48.17 51.64 51.07 51.12 40.31 45.43 48.74 50.59 50.24 50.71 47.10 53.41 51.54 47.87 42.69 41.12 40.15 38.82 42.40 42.47 39.70 39.85 40.39 34.10 40.85 39.63 38.46 35.41 30.38 37.29 27.42 33.69 38.50 41.12 44.13 44.33 43.57 43.78 45.09
50.53 51.11 50.87 50.72 43.45 46.78 50.07 50.51 50.28 52.37 29.89 47.73 48.78 53.59 48.88 47.24 46.17 47.63 49.67 46.91 42.81 42.36 41.35 39.70 40.23 39.72 38.43 40.67 41.80 38.97 40.73 38.41 37.98 33.76 30.85 31.30 28.50 33.04 36.54 38.97 41.65 43.72 43.88 45.83 46.33
50.15 50.38 50.43 48.43 45.69 48.80 51.06 49.04 51.06 38.48 30.43 46.31 47.14 46.02 44.41 45.69 45.68 46.98 46.81 47.68 46.13 42.06 41.04 41.20 43.51 42.93 42.20 43.12 42.53 42.30 38.63 35.73 32.42 30.44 25.75 30.33 30.63 30.45 34.02 39.28 41.49 43.96 45.39 47.12 46.35
50.04 49.92 48.35 49.11 43.44 47.94 48.50 48.19 33.85 30.09 44.11 42.62 42.51 44.52 42.69 42.15 43.28 44.24 42.98 41.21 38.96 34.23 34.35 38.35 39.77 43.33 44.58 39.41 40.28 38.32 33.01 26.85 25.24 23.86 25.21 32.05 29.87 32.83 38.47 41.74 43.63 43.95 45.04 45.77 46.18
48.65 48.21 46.90 49.80 48.22 48.80 48.23 41.84 28.90 36.39 42.23 45.99 43.87 43.51 40.75 42.72 42.50 43.77 40.50 37.78 40.92 38.69 34.08 33.02 32.51 41.73 44.67 40.82 38.08 35.87 34.44 27.80 23.30 22.82 25.65 32.68 28.27 33.94 41.02 42.32 45.34 45.92 45.02 45.91 46.50
47.02 42.40 44.65 48.76 50.94 47.69 43.22 32.43 30.86 37.10 45.11 41.78 42.53 38.77 38.70 42.50 40.50 40.68 38.35 38.41 41.13 40.67 35.81 32.80 34.66 42.57 43.64 43.16 41.82 35.22 31.73 33.73 29.28 27.42 24.05 28.42 33.07 39.16 41.14 42.67 44.59 44.86 45.23 45.00 45.60
39.49 38.80 42.93 48.30 50.46 46.37 39.08 34.39 36.51 45.37 45.67 44.42 37.41 40.33 35.44 37.71 37.60 37.21 37.74 41.86 42.45 44.00 40.68 37.12 32.11 40.30 43.07 43.17 41.27 37.91 38.61 29.59 27.70 23.89 22.50 26.29 28.35 31.67 36.76 39.95 42.82 42.52 43.09 44.55 45.14
35.36 36.49 44.31 49.32 48.55 42.99 35.94 36.25 41.25 46.59 47.30 43.18 39.66 37.95 38.57 37.51 38.61 37.06 37.71 41.61 44.49 43.00 41.22 39.14 35.28 35.74 39.56 37.51 36.17 35.71 32.57 31.67 30.81 27.91 24.18 23.19 26.72 36.21 37.95 39.61 40.35 41.33 42.60 43.16 43.66
31.17 32.89 43.24 47.68 40.93 35.44 34.32 38.41 43.15 44.70 45.04 43.20 42.52 39.95 37.67 38.53 37.66 37.71 38.34 41.70 45.97 44.17 39.30 39.95 34.35 30.96 35.42 39.49 41.08 38.51 36.10 33.45 26.34 26.98 27.58 27.19 28.80 42.36 40.64 39.51 41.05 41.67 42.79 42.70 42.85
29.35 30.22 42.52 45.04 33.73 33.18 36.62 38.85 41.96 41.23 40.11 41.04 39.98 41.53 40.88 37.52 34.62 38.26 40.61 45.72 45.86 43.31 40.57 40.32 33.22 26.47 30.30 34.18 37.18 35.81 37.19 35.53 32.64 29.75 27.98 25.16 29.43 41.33 41.16 40.57 41.37 40.52 41.84 42.68 43.67
31.98 30.58 38.38 38.82 37.34 33.42 33.05 34.27 35.46 40.84 40.99 40.98 39.56 40.33 36.96 35.06 39.41 36.53 39.06 44.86 45.19 44.47 50.35 45.13 34.76 32.12 29.78 31.77 34.71 33.24 36.58 36.72 34.07 24.92 30.24 32.40 34.61 39.19 40.95 41.10 42.48 42.72 42.38 42.20 44.03
36.21 33.53 33.87 29.90 31.85 30.67 32.13 34.27 33.06 34.00 39.45 40.06 37.35 36.95 35.32 31.12 33.25 33.75 37.33 37.73 42.81 46.10 44.52 40.26 33.11 34.32 34.66 36.71 36.69 36.08 36.13 36.77 35.22 36.24 32.22 34.99 34.96 38.55 40.03 39.64 41.65 40.96 42.71 43.06 43.27
28.58 28.27 29.79 26.72 30.93 31.94 31.47 29.21 32.52 34.81 35.42 33.49 34.24 35.01 35.47 33.04 35.20 31.42 34.98 35.64 36.79 40.85 39.78 40.53 33.14 36.81 33.93 36.75 37.01 33.81 35.91 36.24 36.59 36.91 36.59 36.64 35.31 41.67 41.00 41.43 41.88 42.12 42.88 43.18 44.78
33.17 33.16 31.83 28.15 29.54 29.80 29.68 32.70 33.57 33.29 34.47 37.21 34.77 31.74 30.25 33.52 37.74 38.14 38.88 39.22 38.77 36.91 36.74 36.92 35.11 33.00 29.58 33.48 32.38 27.89 32.92 34.55 35.45 36.82 35.47 30.97 35.85 39.39 39.42 40.59 41.10 42.05 43.09 43.20 44.73
MSLP
1017.03 1016.69 1016.37 1016.05 1015.75 1015.48 1015.19 1014.91 1014.60 1014.27 1013.96 1013.63 1013.28 1012.85 1012.46 1012.25 1011.57 1011.40 1011.09 1010.47 1010.32 1010.19 1010.11 1009.96 1009.89 1010.10 1010.25 1010.77 1011.18 1011.94 1013.51 1014.28 1013.26 1012.45 1011.50 1010.74 1010.44 1009.92 1009.56 1009.23 1008.99 1008.88 1009.01 1009.12 1009.14
1017.12 1016.72 1016.39 1016.02 1015.70 1015.39 1015.09 1014.78 1014.48 1014.18 1013.88 1013.56 1013.23 1012.87 1012.41 1012.24 1011.83 1010.96 1010.03 1010.05 1010.18 1010.15 1010.15 1010.22 1010.29 1010.29 1010.86 1011.19 1011.56 1012.17 1013.30 1013.05 1012.27 1011.71 1011.25 1010.70 1010.34 1009.90 1009.83 1009.77 1009.39 1009.10 1009.02 1009.05 1009.28
1017.28 1016.82 1016.41 1016.01 1015.66 1015.33 1015.01 1014.63 1014.27 1013.97 1013.75 1013.47 1013.07 1012.76 1012.36 1012.05 1011.59 1010.49 1009.71 1009.96 1010.12 1010.21 1010.28 1010.30 1010.47 1010.56 1011.25 1011.51 1011.91 1012.21 1012.43 1012.23 1011.75 1011.32 1011.09 1010.76 1010.25 1009.83 1009.83 1009.65 1009.40 1009.46 1009.20 1009.11 1009.29
1017.40 1016.94 1016.43 1016.02 1015.59 1015.21 1014.88 1014.52 1014.12 1013.75 1013.48 1013.27 1012.93 1012.57 1012.13 1011.88 1011.39 1009.79 1009.61 1009.88 1010.05 1010.20 1010.23 1010.24 1010.51 1011.19 1011.83 1011.99 1011.99 1011.99 1011.90 1011.75 1011.30 1011.00 1011.14 1010.76 1009.98 1009.84 1009.76 1009.44 1008.98 1009.25 1009.62 1009.41 1009.26
1017.56 1016.99 1016.47 1015.93 1015.48 1015.09 1014.72 1014.35 1013.97 1013.57 1013.33 1013.02 1012.75 1012.45 1011.99 1011.57 1010.46 1009.11 1009.59 1009.76 1009.91 1010.11 1010.38 1010.45 1010.85 1011.50 1011.94 1012.04 1011.89 1011.93 1011.79 1011.59 1011.12 1010.96 1010.87 1010.38 1010.19 1009.90 1009.51 1009.25 1009.23 1009.27 1009.20 1009.25 1009.37
1017.66 1017.05 1016.48 1015.90 1015.34 1014.88 1014.54 1014.21 1013.79 1013.43 1013.13 1012.95 1012.65 1012.49 1012.22 1011.09 1009.43 1009.40 1009.49 1009.82 1009.96 1010.07 1010.28 1010.45 1010.77 1011.15 1011.72 1011.98 1012.07 1011.95 1011.83 1011.55 1011.03 1010.71 1010.23 1010.07 1010.01 1009.87 1009.25 1009.21 1009.09 1009.19 1009.02 1008.78 1009.09
1017.62 1016.97 1016.41 1015.81 1015.21 1014.69 1014.19 1013.88 1013.61 1013.24 1012.87 1012.81 1012.76 1012.53 1012.00 1010.28 1009.39 1009.48 1009.59 1009.70 1009.81 1010.02 1010.18 1010.21 1010.52 1011.11 1011.64 1012.00 1012.05 1012.12 1012.11 1011.63 1011.17 1010.77 1010.55 1010.25 1010.25 1010.13 1009.70 1009.50 1009.52 1009.37 1009.11 1008.76 1008.49
1017.45 1016.74 1016.19 1015.57 1014.94 1014.37 1013.88 1013.49 1013.14 1012.88 1012.77 1012.64 1012.59 1012.45 1011.29 1009.37 1009.30 1009.48 1009.54 1009.53 1009.52 1009.84 1010.15 1010.06 1010.41 1011.09 1011.69 1012.08 1012.44 1012.67 1012.65 1012.47 1011.47 1011.15 1010.77 1010.60 1010.86 1010.12 1009.67 1009.89 1009.85 1009.51 1009.25 1008.95 1008.47
1017.47 1016.68 1015.95 1015.19 1014.57 1013.89 1013.37 1013.02 1012.55 1012.38 1012.69 1012.64 1012.65 1012.14 1010.76 1009.29 1009.30 1008.83 1009.08 1009.45 1009.35 1009.55 1009.91 1010.19 1010.66 1011.84 1012.33 1012.99 1013.45 1013.64 1013.49 1013.01 1012.21 1011.53 1011.25 1011.24 1011.21 1010.45 1009.79 1009.95 1009.97 1009.54 1009.18 1009.01 1008.61
1017.34 1016.56 1015.81 1015.05 1014.32 1013.53 1012.85 1012.44 1012.35 1012.42 1012.65 1012.57 1012.36 1012.27 1010.37 1009.39 1008.99 1008.86 1008.85 1009.17 1009.39 1009.72 1010.28 1010.81 1011.85 1012.58 1013.47 1013.73 1014.14 1013.87 1013.72 1013.31 1012.87 1011.92 1011.65 1011.59 1011.36 1010.81 1010.07 1010.01 1009.68 1009.45 1009.01 1008.87 1008.69
1017.29 1016.44 1015.54 1014.74 1014.09 1013.37 1012.53 1012.26 1012.77 1012.67 1012.31 1011.61 1011.09 1010.69 1009.83 1009.09 1008.81 1008.73 1008.71 1009.12 1009.39 1010.17 1011.01 1011.65 1012.62 1013.00 1012.99 1013.12 1013.05 1013.17 1013.37 1013.35 1012.63 1011.89 1012.01 1011.89 1011.67 1010.85 1009.78 1009.67 1009.36 1009.09 1009.08 1008.67 1008.30
1017.30 1016.36 1015.38 1014.46 1013.81 1013.16 1012.81 1012.66 1012.39 1012.45 1011.63 1010.39 1009.85 1009.73 1009.43 1009.30 1009.35 1008.67 1008.62 1009.42 1009.83 1010.72 1011.40 1012.21 1012.35 1012.07 1012.12 1012.41 1012.83 1013.07 1013.15 1013.10 1012.59 1012.16 1012.49 1012.14 1011.65 1010.58 1009.89 1009.28 1009.15 1008.99 1008.69 1008.54 1008.18
1017.33 1016.40 1015.41 1014.15 1013.53 1013.33 1013.08 1012.11 1011.70 1011.86 1011.93 1009.83 1009.21 1008.85 1008.78 1009.24 1009.39 1008.61 1008.68 1009.19 1009.91 1010.83 1011.49 1011.96 1011.53 1011.46 1011.75 1012.05 1012.41 1012.55 1012.80 1012.59 1012.61 1012.53 1012.52 1012.52 1011.83 1010.96 1009.71 1009.33 1008.92 1008.76 1008.71 1008.65 1008.25
1017.33 1016.43 1015.61 1014.33 1013.51 1013.69 1012.83 1011.88 1011.63 1011.47 1011.64 1009.77 1008.66 1007.77 1008.14 1008.47 1008.68 1007.91 1008.10 1008.93 1009.95 1010.54 1011.33 1011.58 1011.09 1011.17 1011.50 1011.75 1011.86 1012.15 1011.68 1012.15 1012.61 1013.12 1013.61 1013.29 1013.03 1011.86 1010.43 1009.80 1009.33 1009.09 1009.17 1008.97 1008.43
1016.69 1016.19 1015.33 1015.04 1014.48 1013.49 1012.29 1011.81 1011.50 1011.66 1011.36 1008.98 1007.96 1007.01 1007.70 1008.22 1007.99 1007.74 1007.87 1008.49 1009.44 1010.21 1011.22 1011.03 1010.76 1010.90 1011.08 1010.93 1011.13 1011.42 1011.57 1012.40 1012.97 1013.71 1014.33 1014.29 1014.38 1011.89 1011.04 1010.16 1009.58 1009.23 1009.14 1008.92 1008.70
1016.46 1015.52 1015.13 1014.93 1014.73 1012.81 1011.99 1011.55 1011.75 1012.53 1010.94 1008.87 1007.88 1007.60 1008.14 1008.11 1008.00 1007.93 1008.11 1008.43 1009.12 1010.09 1010.70 1010.73 1010.38 1010.33 1010.09 1010.17 1010.63 1011.14 1011.99 1013.21 1014.34 1014.93 1015.22 1014.38 1014.27 1012.54 1011.27 1009.94 1009.46 1009.05 1008.87 1008.74 1008.67
1016.35 1015.01 1014.52 1014.34 1013.67 1012.69 1012.24 1012.31 1013.11 1012.42 1010.40 1009.72 1009.07 1008.87 1008.87 1008.65 1008.41 1008.40 1008.66 1009.03 1009.59 1010.49 1010.90 1010.70 1010.25 1009.60 1009.51 1010.29 1010.87 1011.63 1013.18 1014.75 1015.49 1015.98 1015.57 1014.56 1014.25 1011.88 1010.17 1009.45 1009.06 1008.87 1008.83 1008.69 1008.66
1016.04 1014.71 1014.45 1013.85 1013.13 1013.06 1012.83 1013.53 1013.79 1012.11 1011.18 1010.29 1010.11 1009.62 1009.61 1009.23 1009.01 1008.97 1009.10 1009.53 1009.60 1010.25 1011.17 1011.25 1010.43 1009.58 1009.31 1009.74 1010.55 1011.83 1013.17 1015.15 1015.87 1016.50 1015.73 1014.73 1013.07 1010.61 1009.17 1008.63 1008.57 1008.50 1008.68 1008.75 1008.59
1015.94 1014.91 1014.33 1013.36 1012.83 1013.19 1013.88 1014.69 1013.81 1012.81 1011.92 1011.40 1010.85 1010.52 1010.22 1009.92 1009.89 1009.74 1009.68 1009.66 1009.49 1009.95 1010.77 1011.10 1010.65 1009.70 1009.42 1009.62 1010.29 1012.03 1013.25 1014.14 1015.41 1016.45 1016.31 1014.26 1011.95 1010.08 1008.79 1008.68 1008.57 1008.49 1008.70 1008.69 1008.82
1017.79 1016.71 1014.73 1013.41 1012.98 1013.38 1014.43 1014.74 1013.85 1012.85 1012.14 1011.71 1011.77 1011.39 1011.27 1010.98 1010.85 1010.53 1010.15 1009.63 1009.56 1009.68 1010.07 1010.81 1011.12 1010.45 1010.01 1010.14 1010.74 1011.39 1012.65 1014.47 1016.07 1016.79 1016.09 1013.85 1012.34 1010.11 1008.99 1008.59 1008.35 1008.55 1008.73 1008.94 1008.80
1018.50 1017.16 1014.35 1013.43 1013.08 1014.23 1015.45 1015.37 1014.33 1013.16 1012.78 1012.33 1012.17 1012.10 1012.03 1011.73 1011.32 1011.02 1010.47 1009.95 1009.61 1009.95 1010.27 1010.96 1011.71 1011.55 1011.27 1011.01 1011.16 1012.03 1012.80 1014.29 1015.58 1016.20 1015.82 1014.45 1011.16 1009.23 1008.70 1008.57 1008.73 1008.77 1008.72 1008.75 1008.79
1020.61 1018.82 1014.97 1013.85 1014.77 1016.32 1016.78 1016.59 1015.61 1014.35 1013.82 1013.49 1013.04 1012.98 1012.79 1012.55 1012.08 1011.68 1011.05 1010.17 1009.67 1009.91 1010.57 1010.97 1011.77 1012.24 1011.54 1011.00 1011.13 1011.56 1012.38 1013.61 1015.25 1015.67 1015.34 1014.40 1010.41 1008.69 1008.21 1008.55 1008.72 1008.78 1008.71 1008.49 1008.55
1022.29 1020.43 1016.18 1015.60 1017.37 1018.55 1018.39 1017.49 1016.44 1015.66 1015.31 1014.94 1014.84 1014.43 1014.49 1014.12 1013.58 1012.30 1011.27 1010.35 1009.98 1010.03 1010.07 1011.05 1011.98 1012.66 1012.37 1012.07 1011.67 1011.81 1012.24 1012.93 1014.01 1014.74 1014.47 1013.87 1010.19 1008.39 1008.27 1008.38 1008.37 1008.49 1008.53 1008.22 1007.97
1022.79 1022.05 1019.83 1019.32 1020.14 1020.41 1020.03 1018.74 1017.64 1016.74 1016.55 1016.45 1016.15 1015.77 1015.83 1015.41 1014.71 1014.11 1013.00 1011.39 1010.67 1010.30 1010.17 1010.48 1011.28 1011.87 1012.13 1011.92 1011.66 1011.91 1011.93 1012.43 1012.87 1013.55 1013.13 1010.53 1009.52 1008.33 1008.31 1008.36 1008.47 1008.12 1008.01 1007.84 1007.45
1023.84 1024.55 1024.15 1022.92 1021.89 1021.71 1021.15 1020.05 1019.09 1018.40 1018.01 1017.57 1017.18 1017.62 1017.73 1017.05 1016.22 1015.35 1014.59 1013.83 1012.23 1011.77 1011.33 1011.84 1012.03 1012.03 1011.90 1012.03 1011.98 1011.79 1011.64 1011.83 1011.91 1011.39 1011.87 1008.10 1009.20 1007.15 1008.15 1008.22 1008.03 1008.09 1008.14 1007.91 1007.33
1025.48 1025.79 1025.12 1024.33 1023.40 1022.67 1021.64 1020.87 1020.29 1020.05 1019.94 1019.32 1018.96 1018.85 1018.73 1018.32 1017.31 1016.57 1016.22 1015.64 1014.51 1012.97 1012.26 1012.40 1012.79 1013.10 1012.61 1012.03 1011.67 1011.33 1010.81 1010.82 1010.63 1010.11 1010.10 1009.10 1006.63 1008.18 1007.85 1008.13 1008.19 1008.22 1008.11 1007.86 1007.36
1026.35 1026.26 1026.04 1024.94 1024.27 1023.70 1022.53 1021.74 1021.35 1021.16 1020.33 1019.91 1019.87 1019.47 1018.78 1018.19 1017.79 1017.00 1016.33 1015.48 1014.86 1014.47 1014.15 1013.53 1013.30 1013.51 1012.43 1011.95 1011.63 1010.37 1009.27 1008.97 1008.83 1008.71 1008.82 1008.80 1007.57 1008.13 1008.30 1008.48 1008.50 1008.36 1008.18 1007.97 1007.51
Wind_Speed
15 14 13 12 11 11 11 11 11 11 12 13 14 14 14 13 14 1 1 5 4 4 4 5 3 3 3 3 3 4 6 2 5 5 2 4 4 2 1 4 4 3 3 2 1
18 16 15 14 13 11 11 11 11 11 11 12 13 13 15 12 2 3 5 5 2 3 4 6 5 4 4 3 3 6 4 8 4 3 1 3 1 2 1 1 2 3 2 1 4
20 18 17 15 13 12 12 11 11 11 11 12 12 12 13 6 4 4 5 4 2 0 1 2 2 3 5 2 4 2 4 3 2 4 3 2 3 1 2 4 6 6 6 3 4
21 20 19 17 15 13 12 11 11 12 11 12 12 11 13 2 2 5 5 5 4 2 2 5 6 5 4 3 3 2 1 3 3 2 2 4 2 2 4 10 5 4 3 5 7
21 21 20 19 17 16 14 12 12 11 11 11 12 12 3 3 4 6 6 6 2 1 3 3 6 3 2 2 4 1 1 3 7 7 6 4 6 6 8 8 7 6 6 8 8
20 21 21 20 19 16 14 13 11 11 10 9 9 10 2 2 3 5 2 1 3 1 1 1 2 3 4 0 2 3 3 7 5 3 2 3 2 2 4 5 7 3 10 9 8
21 21 21 20 20 18 15 13 12 12 10 8 7 2 1 9 1 5 4 3 1 2 2 1 4 2 4 1 1 2 5 5 2 4 4 2 4 3 3 5 7 9 9 9 9
23 22 22 21 21 19 18 15 15 13 10 6 3 1 6 4 1 4 2 4 5 4 3 2 4 4 2 1 7 4 5 5 5 7 2 4 7 8 8 4 10 10 8 8 10
24 23 23 23 22 21 18 17 13 4 3 3 0 2 8 7 2 2 6 4 1 2 2 4 5 4 5 4 5 6 0 2 8 2 1 2 6 8 9 8 10 10 9 8 9
25 25 23 23 22 21 20 9 2 4 2 2 1 2 5 3 3 3 4 3 2 2 3 5 5 4 4 5 3 4 1 3 5 5 1 5 9 9 11 7 12 10 9 8 9
26 26 25 24 22 20 9 2 5 4 1 7 6 4 4 5 3 4 1 3 3 6 1 3 5 3 7 8 4 3 3 4 5 6 1 7 7 15 13 7 9 9 8 9 9
27 27 27 26 24 13 2 4 2 3 9 10 13 6 5 2 4 5 6 3 3 2 2 5 3 7 4 2 5 4 3 7 6 4 4 7 12 10 7 7 5 7 8 8 8
27 27 27 28 25 2 3 2 1 2 3 8 5 4 5 9 7 8 9 4 4 2 4 6 6 2 2 1 2 4 5 6 7 2 4 4 9 6 6 4 6 6 6 6 9
26 26 25 31 2 4 5 3 6 3 5 7 3 4 5 7 4 7 8 7 2 8 5 5 3 5 3 5 6 3 6 5 3 3 3 3 8 6 6 10 5 7 8 8 8
32 26 23 10 4 1 3 6 2 5 5 2 2 2 2 7 3 2 3 4 9 8 7 9 4 5 4 7 6 9 2 2 1 1 3 2 1 9 4 5 3 6 6 6 5
35 31 24 2 1 7 8 4 5 8 7 3 3 3 4 3 3 2 3 4 3 5 2 8 2 5 8 1 5 2 4 6 5 3 2 5 6 7 4 4 3 3 4 2 4
35 34 12 1 3 7 5 5 6 5 4 4 3 5 4 4 4 4 5 5 7 3 4 3 4 4 4 4 1 6 6 4 5 3 6 2 1 10 7 8 7 6 5 2 1
37 26 2 4 5 6 4 7 3 3 4 4 6 7 5 2 4 3 2 3 4 3 3 5 6 6 5 6 9 4 8 7 5 4 5 1 8 8 9 8 7 6 6 6 6
27 5 4 7 2 3 7 4 7 4 4 7 8 3 5 2 2 2 2 4 6 7 8 6 6 3 1 3 7 4 4 3 3 2 2 6 8 9 7 7 7 7 4 8 7
6 5 5 9 2 5 6 5 4 4 5 2 2 3 4 5 2 2 3 3 3 3 2 2 3 3 2 4 3 5 8 3 3 3 6 5 5 8 3 8 7 4 6 5 6
4 6 4 12 2 6 3 5 4 6 5 3 3 6 7 6 5 5 4 5 4 3 3 6 5 6 1 6 9 1 1 4 3 6 5 4 7 7 8 5 5 8 7 7 8
4 5 6 8 4 2 3 6 7 7 9 6 5 3 3 4 5 4 7 8 5 6 6 5 6 5 10 3 1 3 7 7 6 5 4 2 10 7 8 5 5 8 8 7 8
3 4 6 4 4 4 6 6 3 8 7 6 5 6 6 4 7 5 6 6 8 8 8 7 3 2 7 6 2 4 5 5 4 4 6 3 8 2 3 6 7 8 9 9 9
3 6 6 7 3 4 5 5 6 6 1 6 6 6 6 6 4 8 9 6 7 3 5 6 6 10 12 8 4 4 5 6 7 5 3 22 24 21 19 17 14 13 10 9 11
4 2 1 6 3 3 2 4 6 4 5 6 2 7 7 5 6 5 5 13 11 5 3 0 6 4 4 4 5 8 11 12 15 17 11 33 21 27 12 10 11 7 6 8 8
3 4 5 4 5 7 3 3 3 5 6 7 5 10 7 8 7 5 9 6 9 11 3 3 4 8 9 15 15 22 18 16 19 22 20 26 34 13 5 0 3 6 7 6 4
2 2 3 4 4 2 4 3 5 11 8 2 7 11 13 11 9 15 14 15 14 11 15 4 1 1 10 2 4 13 15 20 14 15 14 17 19 3 3 5 5 7 7 8 9
Wind_Direction
10 5 358 352 348 346 340 332 326 323 321 321 323 322 323 330 317 119 13 213 207 308 336 307 63 33 58 67 66 122 66 145 192 168 252 314 36 342 300 13 21 20 105 170 84
7 4 359 354 347 344 340 331 324 319 317 317 317 317 318 329 298 25 238 202 222 326 31 32 14 5 50 36 29 81 102 208 204 190 216 276 289 248 118 17 284 328 277 254 141
3 1 357 352 348 343 337 331 323 316 313 312 312 315 316 319 35 278 207 188 151 268 61 109 95 49 61 353 6 158 160 202 169 205 181 237 279 210 148 304 221 219 270 290 195
1 357 355 350 345 341 336 329 323 316 314 313 313 318 319 314 143 258 151 145 156 222 10 43 33 44 64 29 344 103 180 169 261 198 149 223 199 228 198 239 248 276 209 281 285
357 355 351 348 344 338 332 327 320 314 309 311 318 332 358 22 250 268 115 125 96 48 42 48 56 100 91 327 344 66 287 298 274 285 228 199 209 203 243 255 274 282 297 259 245
350 351 349 345 340 335 327 319 312 306 302 301 313 319 4 18 253 351 94 152 228 128 79 126 141 172 116 246 109 311 290 288 294 296 317 15 352 206 293 347 335 315 294 288 233
348 348 345 342 339 331 325 317 306 295 288 289 304 328 75 233 47 354 144 197 186 178 283 219 146 132 127 29 301 291 344 346 300 323 6 347 354 257 333 9 340 325 316 313 298
346 345 342 338 335 329 324 319 304 290 270 262 279 234 245 255 346 307 136 281 239 226 226 240 147 107 51 5 14 34 51 20 292 356 358 80 267 289 313 355 308 304 300 302 292
344 343 340 336 333 328 321 315 305 293 221 187 315 95 272 314 270 280 151 207 216 155 190 90 84 85 26 64 16 7 246 312 317 305 304 56 264 262 296 302 294 283 275 274 282
343 342 338 335 330 328 321 295 182 114 153 199 291 40 284 181 294 284 198 175 199 53 59 49 50 72 43 68 222 243 251 263 252 269 339 307 270 281 271 268 262 270 274 273 264
343 341 337 335 330 326 337 49 17 353 115 213 195 234 288 277 288 246 212 134 81 54 75 9 74 230 241 203 210 188 200 239 261 270 261 258 277 280 285 253 272 267 263 267 265
341 339 336 335 332 331 141 76 170 206 298 245 250 246 237 77 332 281 131 173 127 243 99 19 235 228 239 175 192 221 238 256 277 263 190 286 292 277 296 269 257 293 300 295 290
340 339 335 331 326 356 340 214 85 197 304 297 212 184 196 146 217 257 145 158 162 217 189 164 233 178 238 216 196 242 206 232 224 297 295 317 296 312 299 322 332 349 311 317 287
340 339 336 329 11 319 293 3 331 167 41 282 272 270 129 136 237 213 184 146 164 206 176 228 256 174 184 236 163 228 225 231 263 30 263 62 282 293 295 314 338 341 341 326 338
337 340 334 329 293 206 281 329 344 54 346 233 200 100 138 154 228 197 169 80 198 196 118 245 212 208 221 230 171 227 155 189 332 274 43 310 73 272 329 299 298 320 320 334 353
334 332 337 113 221 263 319 332 56 44 263 334 152 172 136 242 249 122 153 86 146 160 233 237 201 189 212 159 182 129 98 50 54 86 8 234 144 279 247 215 281 285 278 24 39
332 324 326 270 262 318 310 45 42 144 322 342 10 12 339 266 283 187 197 185 183 128 247 313 238 249 158 124 15 78 60 331 338 5 226 216 323 235 242 227 215 217 253 223 179
332 323 282 238 277 350 37 50 192 268 275 350 10 316 222 234 249 302 178 243 208 112 133 198 313 189 180 182 181 170 154 161 243 221 238 344 240 246 223 232 222 226 245 271 266
330 330 345 330 286 129 72 84 218 230 320 352 330 305 305 308 284 354 239 224 203 170 182 168 263 292 165 153 132 179 178 186 116 30 50 232 295 309 253 264 229 248 254 261 304
334 341 291 323 47 56 76 231 248 227 328 330 242 247 272 271 289 278 239 229 201 167 126 209 296 242 217 82 26 159 163 74 18 268 254 270 254 231 274 234 229 263 253 273 285
25 0 280 333 81 50 164 238 320 314 350 279 253 261 253 251 223 220 244 291 194 188 186 157 155 270 149 202 185 146 213 71 134 157 214 294 254 224 219 236 273 273 258 266 288
1 348 327 351 49 39 40 329 311 344 18 330 328 323 279 323 295 258 228 221 176 160 196 203 164 206 213 251 24 175 201 155 143 234 232 208 270 218 211 187 202 257 258 263 246
17 279 316 29 48 21 328 319 292 355 345 349 310 8 3 298 313 242 242 256 240 184 186 183 203 350 333 348 20 200 195 153 107 68 203 180 255 190 287 269 276 256 275 255 260
42 358 328 31 32 73 350 293 324 328 174 356 288 44 353 347 321 315 306 313 333 281 190 157 180 173 234 214 172 197 179 192 160 166 213 250 282 264 271 279 276 276 280 296 287
25 47 159 332 332 317 251 276 289 338 5 342 312 49 0 299 314 358 350 332 318 286 292 284 250 205 266 291 274 244 240 232 232 248 229 270 259 274 283 266 267 259 293 286 297
59 26 349 278 301 341 349 295 316 15 351 316 342 341 320 286 270 286 308 319 276 324 253 130 255 263 270 273 269 258 245 240 240 246 249 255 273 281 308 41 274 291 299 304 302
332 359 111 277 328 356 256 359 324 341 286 295 342 326 316 296 309 290 272 256 243 271 286 295 268 275 264 256 294 276 218 219 228 238 232 243 264 77 317 315 280 283 274 275 273